Find Starlink 30524

NORAD ID: 57965 Int'l Des: 2023-151 Owner: SPXS Country: US Constellation: starlink operational
LEOCIRCULAR

リアルタイム位置

3D地球を読み込み中...

Starlink 30524について

説明を読み込み中...

次回通過

Passes for default location (London). Set your location on the main map for personalized predictions.

高度履歴

Loading altitude history...

軌道要素

1 57965U 23151B 26139.50172661 .00003267 00000-0 12823-3 0 9990
2 57965 43.0042 296.3243 0002043 266.9708 93.0910 15.27574711146590
Epoch: May 19, 2026 • Age: 11 hours

現在のステータス

高度 486.0 km
速度 7.62 km/s
衛星直下点 -17.33°S, 52.99°E
打ち上げ日 Sep 30, 2023
運用期間 2.6 years
タイプ internet

技術仕様

分類 Payload
質量 730.00 kg
乾燥質量 700.00 kg
総質量 730.00 kg
長さ 0.30 m
直径 4.10 m
スパン 29.00 m
形状 Box + pan
製造者 SPXS
バスタイプ Starlink V2M
フェーズステータス In Orbit
所有者/国 SPXS/US

Most Searched